Cheraw, SC

3:17 AM EDT on September 26, 2016 (GMT -0400)
Cheraw

Weather History for KCQW - March, 2013

Change the Weather History Date:

Wednesday, March 6, 2013

  Actual Average (KFLO) Record (KFLO)
Temperature  
Mean Temperature 44 °F 53 °F  
Max Temperature 51 °F 65 °F 85 °F (1961)
Min Temperature 35 °F 41 °F 19 °F (1960)
Degree Days  
Heating Degree Days 21 12  
Month to date heating degree days 78  
Since 1 July heating degree days 2144  
Cooling Degree Days 0 0  
Month to date cooling degree days 0  
Year to date cooling degree days 6  
Moisture  
Dew Point 25 °F    
Average Humidity 50    
Maximum Humidity 94    
Minimum Humidity 30    
Precipitation  
Precipitation 0.00 in 0.12 in 1.25 in (1983)
Month to date precipitation 0.67  
Year to date precipitation 6.82  
Sea Level Pressure  
Sea Level Pressure 29.82 in    
Wind  
Wind Speed 30 mph (WSW)    
Max Wind Speed 41 mph    
Max Gust Speed 63 mph    
Visibility 10 miles    
Events      
T = Trace of Precipitation, MM = Missing Value Source: NWS Daily Summary

Daily Weather History Graph

Daily Weather History Graph

Search for Another Location

Airport or City:

Trip Planner

Search our weather history database for the weather conditions in past years. The results will help you decide how hot, cold, wet, or windy it might be!

Date:

Astronomy

Mar. 06, 2013 Rise Set
Actual Time 6:42 AM EST 6:20 PM EST
Civil Twilight 6:17 AM EST 6:45 PM EST
Nautical Twilight 5:47 AM EST 7:14 PM EST
Astronomical Twilight 5:18 AM EST 7:44 PM EST
Moon 2:39 AM EST (3/6) 1:10 PM EST (3/6)
Length of Visible Light 12h 28m
Length of Day
11h 38m
Waning Crescent, 30% of the Moon is Illuminated
Mar 6
Waning Crescent
Mar 11
New
Mar 19
First Quarter
Mar 27
Full
Apr 3
Last Quarter

Hourly Weather History & Observations

Time (EST) Temp. Windchill Dew Point Humidity Pressure Visibility Wind Dir Wind Speed Gust Speed Precip Events Conditions
12:15 AM 51.8 °F - 50.0 °F 94% 29.59 in 10.0 mi WSW 27.6 mph 42.6 mph N/A   Scattered Clouds
12:35 AM 51.8 °F - 48.2 °F 88% 29.59 in 10.0 mi WSW 28.8 mph 41.4 mph N/A   Partly Cloudy
12:55 AM 51.8 °F - 46.4 °F 82% 29.60 in 10.0 mi WSW 26.5 mph 58.7 mph N/A   Partly Cloudy
1:15 AM 50.0 °F - 42.8 °F 76% 29.60 in 10.0 mi WSW 29.9 mph 50.6 mph N/A   Partly Cloudy
1:35 AM 50.0 °F - 41.0 °F 71% 29.61 in 10.0 mi West 35.7 mph 52.9 mph N/A   Partly Cloudy
1:55 AM 48.2 °F - 39.2 °F 71% 29.62 in 10.0 mi WSW 32.2 mph 49.5 mph N/A   Mostly Cloudy
2:15 AM 48.2 °F - 39.2 °F 71% 29.62 in 10.0 mi West 32.2 mph 46.0 mph N/A   Mostly Cloudy
2:35 AM 46.4 °F 36.7 °F 37.4 °F 71% 29.63 in 10.0 mi WSW 33.4 mph 49.5 mph N/A   Mostly Cloudy
2:55 AM 46.4 °F 36.5 °F 35.6 °F 66% 29.63 in 10.0 mi WSW 34.5 mph 55.2 mph N/A   Mostly Cloudy
3:15 AM 44.6 °F 33.2 °F 32.0 °F 61% 29.64 in 10.0 mi WSW 41.4 mph 63.3 mph N/A   Mostly Cloudy
3:35 AM 44.6 °F 34.9 °F 32.0 °F 61% 29.65 in 10.0 mi WSW 28.8 mph 46.0 mph N/A   Overcast
3:55 AM 42.8 °F - 32.0 °F 66% 29.66 in 10.0 mi North - - N/A   Overcast
4:15 AM 42.8 °F - 32.0 °F 66% 29.67 in 10.0 mi North - - N/A   Overcast
4:35 AM 41.0 °F - 32.0 °F 70% 29.67 in 10.0 mi North - - N/A   Overcast
4:55 AM 41.0 °F - 30.2 °F 65% 29.68 in 10.0 mi North - - N/A   Overcast
5:15 AM 41.0 °F - 30.2 °F 65% 29.69 in 10.0 mi North - - N/A   Mostly Cloudy
5:35 AM 41.0 °F - 28.4 °F 61% 29.69 in 10.0 mi North - - N/A   Mostly Cloudy
5:55 AM 39.2 °F - 28.4 °F 65% 29.70 in 10.0 mi North - - N/A   Overcast
6:15 AM 39.2 °F - 28.4 °F 65% 29.71 in 10.0 mi North - - N/A   Overcast
6:35 AM 39.2 °F - 26.6 °F 61% 29.72 in 10.0 mi North - - N/A   Scattered Clouds
6:55 AM 39.2 °F - 21.2 °F 49% 29.72 in 10.0 mi North - - N/A   Partly Cloudy
7:15 AM 39.2 °F - 19.4 °F 45% 29.74 in 10.0 mi North - - N/A   Clear
7:35 AM 39.2 °F - 21.2 °F 49% 29.75 in 10.0 mi North - - N/A   Mostly Cloudy
7:55 AM 39.2 °F - 21.2 °F 49% 29.75 in 10.0 mi North - - N/A   Overcast
8:15 AM 39.2 °F - 23.0 °F 52% 29.77 in 10.0 mi North - - N/A   Scattered Clouds
8:35 AM 39.2 °F - 21.2 °F 49% 29.77 in 10.0 mi North - - N/A   Clear
8:55 AM 41.0 °F - 19.4 °F 42% 29.78 in 10.0 mi North - - N/A   Clear
9:15 AM 41.0 °F - 19.4 °F 42% 29.78 in 10.0 mi North - - N/A   Clear
9:35 AM 41.0 °F - 17.6 °F 39% 29.79 in 10.0 mi North - - N/A   Clear
9:55 AM 41.0 °F - 19.4 °F 42% 29.80 in 10.0 mi North - - N/A   Partly Cloudy
10:15 AM 42.8 °F - 17.6 °F 36% 29.80 in 10.0 mi North - - N/A   Mostly Cloudy
10:35 AM 42.8 °F - 19.4 °F 39% 29.80 in 10.0 mi North - - N/A   Scattered Clouds
10:55 AM 44.6 °F - 19.4 °F 37% 29.81 in 10.0 mi North - - N/A   Partly Cloudy
11:15 AM 44.6 °F - 17.6 °F 34% 29.81 in 10.0 mi North - - N/A   Clear
11:35 AM 46.4 °F - 19.4 °F 34% 29.81 in 10.0 mi North - - N/A   Clear
11:55 AM 46.4 °F - 17.6 °F 32% 29.81 in 10.0 mi North - - N/A   Clear
12:15 PM 46.4 °F - 19.4 °F 34% 29.81 in 10.0 mi North - - N/A   Partly Cloudy
12:35 PM 46.4 °F - 17.6 °F 32% 29.81 in 10.0 mi North - - N/A   Partly Cloudy
12:55 PM 48.2 °F - 19.4 °F 32% 29.80 in 10.0 mi North - - N/A   Scattered Clouds
1:15 PM 48.2 °F - 19.4 °F 32% 29.80 in 10.0 mi North - - N/A   Partly Cloudy
1:35 PM 48.2 °F - 19.4 °F 32% 29.80 in 10.0 mi North - - N/A   Partly Cloudy
1:55 PM 48.2 °F - 19.4 °F 32% 29.79 in 10.0 mi North - - N/A   Partly Cloudy
2:15 PM 50.0 °F - 21.2 °F 32% 29.79 in 10.0 mi North - - N/A   Partly Cloudy
2:35 PM 50.0 °F - 19.4 °F 30% 29.79 in 10.0 mi North - - N/A   Scattered Clouds
2:55 PM 50.0 °F - 19.4 °F 30% 29.80 in 10.0 mi North - - N/A   Partly Cloudy
3:15 PM 50.0 °F - 21.2 °F 32% 29.81 in 10.0 mi North - - N/A   Clear
3:35 PM 50.0 °F - 21.2 °F 32% 29.83 in 10.0 mi North - - N/A   Clear
3:55 PM 50.0 °F - 21.2 °F 32% 29.84 in 10.0 mi North - - N/A   Clear
4:15 PM 50.0 °F - 23.0 °F 35% 29.85 in 10.0 mi North - - N/A   Clear
4:35 PM 50.0 °F - 23.0 °F 35% 29.87 in 10.0 mi North - - N/A   Partly Cloudy
4:55 PM 48.2 °F - 23.0 °F 37% 29.89 in 10.0 mi North - - N/A   Scattered Clouds
5:15 PM 48.2 °F - 23.0 °F 37% 29.91 in 10.0 mi North - - N/A   Mostly Cloudy
5:35 PM 46.4 °F - 23.0 °F 40% 29.92 in 10.0 mi North - - N/A   Mostly Cloudy
5:55 PM 46.4 °F - 23.0 °F 40% 29.94 in 10.0 mi North - - N/A   Clear
6:15 PM 44.6 °F - 23.0 °F 43% 29.96 in 10.0 mi North - - N/A   Clear
6:35 PM 44.6 °F - 23.0 °F 43% 29.97 in 10.0 mi North - - N/A   Clear
6:55 PM 44.6 °F - 23.0 °F 43% 29.99 in 10.0 mi North - - N/A   Clear
7:15 PM 44.6 °F - 23.0 °F 43% 30.00 in 10.0 mi North - - N/A   Clear
7:35 PM 41.0 °F - 23.0 °F 49% 30.01 in 10.0 mi North - - N/A   Clear
7:55 PM 41.0 °F - 23.0 °F 49% 30.02 in 10.0 mi North - - N/A   Clear
8:15 PM 41.0 °F - 23.0 °F 49% 30.03 in 10.0 mi North - - N/A   Clear
8:35 PM 41.0 °F - 24.8 °F 53% 30.04 in 10.0 mi North - - N/A   Clear
8:55 PM 39.2 °F - 23.0 °F 52% 30.04 in 10.0 mi North - - N/A   Clear
9:15 PM 39.2 °F - 24.8 °F 56% 30.05 in 10.0 mi North - - N/A   Clear
9:35 PM 39.2 °F - 24.8 °F 56% 30.05 in 10.0 mi North - - N/A   Clear
9:55 PM 39.2 °F - 24.8 °F 56% 30.06 in 10.0 mi North - - N/A   Clear
10:35 PM 37.4 °F - 24.8 °F 60% 30.07 in 10.0 mi North - - N/A   Clear
10:55 PM 37.4 °F - 24.8 °F 60% 30.07 in 10.0 mi North - - N/A   Clear
11:15 PM 37.4 °F - 24.8 °F 60% 30.08 in 10.0 mi North - - N/A   Clear
11:35 PM 37.4 °F - 24.8 °F 60% 30.08 in 10.0 mi North - - N/A   Clear
11:55 PM 35.6 °F - 24.8 °F 65% 30.09 in 10.0 mi North - - N/A   Clear